Torna al catalogo

STARLINK-38150

AttivoComunicazioniSSO
NORAD 100167·PAYLOAD·🇺🇸 United States

Lanciato Jul 25, 2026 da Vandenberg Space Force Base

Loading…

Prossimi Passaggi (prossime 24 ore)

TLE

AggiornatoSource: Space-Track

Epoca: Sep 14, 2026, 15:06 UTC

1 A0167U 26171V   26257.62975215 -.00076170  00000-0 -23771-2 0  9995
2 A0167  97.2841 290.2663 0001015  70.2451 289.8902 15.33495859  8009

Traccia STARLINK-38150 in tempo reale con AllMySat

Download on the App Store